Regional Weather Roundup
Issued by NWS

Home | Current Version | Previous Version | Text Only | Print | Product List | Glossary Off
Versions: 1 2 3 4 5 6 7 8 9 10 11 12 13 14 15 16 17 18 19 20 21 22 23 24 25 26 27 28 29 30 31 32 33 34 35 36 37 38 39 40 41 42 43 44 45 46 47 48 49 50

552
ASUS45 KPSR 192210
RWRAZ

ARIZONA HOURLY REGIONAL WEATHER ROUNDUP
NATIONAL WEATHER SERVICE PHOENIX AZ
300 PM MST SUN FEB 19 2017

NOTE: FAIR INDICATES FEW OR NO CLOUDS BELOW 12,000 FEET WITH NO
SIGNIFICANT WEATHER AND/OR OBSTRUCTIONS TO VISIBILITY.

AZZ001>003-036-192300-
NORTHWEST ARIZONA

CITY           SKY/WX    TMP DP  RH WIND       PRES   REMARKS
BULLHEAD CITY  MOSUNNY   64  50  59 S14       29.88S
KINGMAN        MOSUNNY   51  39  63 SW16      29.91R
$$

AZZ004>008-015-016-018-192300-
NORTH CENTRAL ARIZONA

CITY           SKY/WX    TMP DP  RH WIND       PRES   REMARKS
GRAND CANYON   LGT RAIN  38  36  92 W12       29.90R FOG     WCI  30
WILLIAMS       MIX PCPN  41  36  81 SW10G18   29.92R
PRESCOTT       CLOUDY    47  38  71 SW13G22   29.92R
FLAGSTAFF      CLOUDY    37  33  85 SW16      29.91R WCI  28
PAYSON         LGT RAIN  43  39  87 SW7       29.97R
PAGE           LGT RAIN  49  38  65 CALM      29.83R
$$

AZZ009>014-017-192300-
NORTHEAST ARIZONA

CITY           SKY/WX    TMP DP  RH WIND       PRES   REMARKS
WINSLOW        PTSUNNY   54  31  41 SW21G26   29.87R
SAINT JOHNS    PTSUNNY   49  29  46 W23G30    29.87R
WINDOW ROCK    CLOUDY    42  33  70 SW12      29.88S
SHOW LOW       LGT RAIN  37  34  87 SW16G26   29.93R WCI  28
$$

AZZ023-192300-
GREATER PHOENIX AREA

CITY           SKY/WX    TMP DP  RH WIND       PRES   REMARKS
PHOENIX        PTSUNNY   59  50  72 SW7       29.93R
BUCKEYE        PTSUNNY   57  55  94 NW3       29.94S
GLENDALE       PTSUNNY   61  55  82 SW6       29.95S
LUKE AFB       LGT RAIN  55  55 100 SW6       29.93S FOG
DEER VALLEY    CLOUDY    55  50  83 CALM      29.93S
SCOTTSDALE     CLOUDY    56  50  80 CALM      29.95F
MESA-GATEWAY   PTSUNNY   57  50  77 VRB5      29.95S
CHANDLER       PTSUNNY   59  50  72 S7        29.94R
$$

AZZ027-028-192300-
SOUTHWEST MARICOPA COUNTY AND PINAL COUNTY

CITY           SKY/WX    TMP DP  RH WIND       PRES   REMARKS
CASA GRANDE    NOT AVBL
GILA BEND      PTSUNNY   62  50  64 SW10      29.93R
$$

AZZ503-504-507>509-192300-
SOUTHEAST ARIZONA

CITY           SKY/WX    TMP DP  RH WIND       PRES   REMARKS
TUCSON         LGT RAIN  54  46  74 NE9       29.96S
DAVIS-MONTHAN  LGT RAIN  53  46  79 SE5       29.96R
RYAN FIELD     SUNNY     61  41  48 SW17      29.96
NOGALES        CLOUDY    57  41  55 SW9       29.96S
SIERRA VISTA   MOSUNNY   53  35  49 W10       29.97R
DOUGLAS        MOSUNNY   51  42  71 S9        29.96F
SAFFORD        MOSUNNY   59  37  44 NW14      29.91S
$$

AZZ020-021-025-026-031-192300-
SOUTHWEST ARIZONA

CITY           SKY/WX    TMP DP  RH WIND       PRES   REMARKS
YUMA           MOSUNNY   67  49  52 SW8       29.91F
$$

CAZ031-033-041-043-047-048-061-192300-
SOUTHERN CALIFORNIA

CITY           SKY/WX    TMP DP  RH WIND       PRES   REMARKS
DOWNTOWN L.A.  CLOUDY    62  50  64 CALM      29.97S
L.A. AIRPORT   MOSUNNY   58  51  78 W9        29.98S
SAN DIEGO      PTSUNNY   61  44  53 SW12      30.03R
BURBANK        CLOUDY    58  47  66 S8        29.96S
ONTARIO        PTSUNNY   57  49  74 SW9       29.96S
RIVERSIDE      CLOUDY    59  48  67 N3        29.97R
PALM SPRINGS   CLOUDY    64  53  67 VRB7      29.92R
EL CENTRO NAS  LGT RAIN  71  44  37 W21       29.92S
IMPERIAL       MOSUNNY   70  47  43 W16       29.89S
BLYTHE         MOSUNNY   67  48  50 SW16      29.90S
NEEDLES        CLOUDY    65  50  58 S8        29.88S
$$

NVZ020-UTZ003-192300-
SOUTHERN NEVADA-UTAH

CITY           SKY/WX    TMP DP  RH WIND       PRES   REMARKS
LAS VEGAS      MOSUNNY   62  37  39 SW8       29.82R
SALT LAKE CITY PTSUNNY   49  39  68 SE6       29.72R
$$

NMZ009-TXZ055-192300-
NEW MEXICO-WEST TEXAS

CITY           SKY/WX    TMP DP  RH WIND       PRES   REMARKS
ALBUQUERQUE    PTSUNNY   52  26  36 SW12      29.84R
EL PASO        PTSUNNY   58  25  28 SW13      29.91S
$$


........................KEY........................
SKY/WX - SKY CONDITION/WEATHER
TMP    - TEMPERATURE IN FAHRENHEIT
DP     - DEW POINT IN FAHRENHEIT
RH     - RELATIVE HUMIDITY IN PERCENT
WIND   - DIRECTION AND SPEED IN MILES PER HOUR (MPH)
VRB    - VARIABLE WIND DIRECTION
PRES   - MEAN SEA LEVEL PRESSURE IN INCHES OF MERCURY
         F - FALLING PRESSURE   R - RISING PRESSURE
         S - STEADY PRESSURE
VSB    - VISIBILITY IN MILES
HX     - HEAT INDEX IN FAHRENHEIT
WCI    - WIND CHILL INDEX IN FAHRENHEIT
TC     - TEMPERATURE IN CELSIUS WHICH IS ALSO KNOWN AS
         TEMPERATURE IN CENTIGRADE
AFB    - AIR FORCE BASE
         LUKE AFB IS LUKE AIR FORCE BASE
         DAVIS-MONTHAN IS DAVIS-MONTHAN AIR FORCE BASE
NAS    - NAVAL AIR STATION
         EL CENTRO NAS IS EL CENTRO NAVAL AIR STATION
N/A    - NOT AVAILABLE





USA.gov is the U.S. government's official web portal to all federal, state and local government web resources and services.